Location: Palomar Mountain Lodge
(33.3110°N, 116.8495°W)
Time: 07:47:43
(UTC-08:00)

Daily predictions for brighter satellites

Satellite Brightness Start Highest point End
(mag) Time Altitude Azimuth Time Altitude Azimuth Time Altitude Azimuth
FENGYUN 3A 3.8 17:04:09 10° SSE 17:09:23 53° ENE 17:14:39 10° N
Ariane Rocket 4.3 17:06:25 10° ESE 17:09:57 19° ENE 17:13:28 10° NNE
Cosmos 2084 4.5 17:07:14 10° S 17:11:13 31° ESE 17:15:05 10° NE
COSMO-SKYMED 1 3.6 17:07:55 10° NE 17:11:36 27° E 17:15:16 10° SSE
Cosmos 1408 3.7 17:10:08 10° NNW 17:13:41 50° W 17:17:16 10° S
CZ-4 R/B 2.4 17:11:22 10° SE 17:14:34 24° ENE 17:17:50 10° NNE
ATLAS 5 CENTAUR R/B 2.5 17:09:54 10° NNW 17:16:03 72° ENE 17:22:50 10° SE
NOSS 2-1 (C) 3.3 17:16:04 10° SW 17:19:40 72° WNW 17:23:18 10° NNE
Cosmos 1184 Rocket 3.5 17:16:59 10° SSE 17:19:55 32° E 17:22:55 10° NNE
NOSS 2-1 (D) 3.4 17:17:54 10° SW 17:21:29 66° WNW 17:25:07 10° NNE
H-2A R/B 4.2 17:19:02 10° W 17:24:50 68° S 18:03:11 10° ESE
Okean-O 4.1 17:21:19 10° S 17:25:29 42° W 17:29:42 10° NNW
Cosmos 494 Rocket 4.1 17:21:48 10° SSW 17:26:56 83° WNW 17:32:10 10° NNE
USA 116 3.7 17:25:24 10° NNE 17:28:17 36° E 17:31:14 10° SSE
Cosmos 1151 Rocket 3.3 17:25:26 10° SSW 17:29:39 69° W 17:33:53 10° N
Milstar 3 Cent rocket 3.2 17:25:58 10° W 17:30:53 51° S 17:39:10 10° ESE
Cosmos 1271 Rocket 3.0 17:29:25 10° N 17:33:09 44° E 17:36:55 10° SSE
COSMOS 2487 4.3 17:32:23 10° NNE 17:33:45 14° NE 17:33:45 14° NE
ATLAS 2AS CENTAUR R/B 4.4 17:31:23 10° N 17:35:37 15° NE 17:38:25 13° ENE
YAOGAN 1 3.2 17:33:32 10° SE 17:37:24 33° ENE 17:41:18 10° N
Cosmos 1862 3.7 17:34:06 10° N 17:37:56 41° E 17:41:42 10° SSE
CRYOSAT 2 4.3 17:36:35 10° SSE 17:41:21 64° E 17:46:09 10° N
Cosmos 1331 Rocket 3.9 17:41:27 10° N 17:46:35 65° ENE 17:51:41 10° SSE
Cosmos 2082 Rocket 3.9 17:42:03 10° NW 17:47:11 36° WSW 17:52:18 10° S
NOAA 12 4.2 17:43:42 10° SSE 17:48:53 56° ENE 17:54:05 10° N
SL-27 R/B 4.4 17:46:15 10° NW 17:49:30 33° W 17:52:41 10° SSW
USA 161 2.5 17:56:10 18° S 17:56:10 18° S 17:56:43 10° S
H-2A R/B 2.7 17:53:02 10° SSE 17:56:36 53° ENE 18:00:16 10° N
Abrixas rocket 3.5 17:54:49 10° W 17:57:37 30° NNW 17:59:12 19° NNE
SKYMED 2 3.7 17:55:22 10° N 17:59:42 77° WNW 18:04:00 10° SSW
CZ-4C R/B 2.7 17:56:16 10° S 18:00:34 32° ESE 18:02:14 26° ENE
CSL-04 Debris 4.3 17:58:50 10° S 18:04:19 80° WSW 18:09:48 10° NNW
Cosmos 1174 4.5 18:03:19 10° S 18:05:24 27° SE 18:05:24 27° SE
Cosmos 2181 Rocket 4.1 18:00:32 10° N 18:06:26 47° E 18:12:22 10° SSE
OAO 1 Rocket 4.4 18:01:43 10° W 18:07:06 81° N 18:09:47 30° E
Envisat 3.5 18:11:01 31° E 18:12:03 34° ENE 18:16:34 10° N
Cosmos 921 Rocket 3.0 18:08:16 10° N 18:12:44 63° ENE 18:17:11 10° SSE
ALOS 4.4 18:09:13 10° SSW 18:13:12 28° W 18:17:12 10° NW
Cosmos 1707 Rocket 3.6 18:09:17 10° S 18:13:31 54° E 18:15:35 28° NNE
CZ-2C R/B 3.7 18:09:55 12° NNE 18:14:09 66° ESE 18:18:47 10° S
Cosmos 2285 Rocket 4.1 18:09:31 10° S 18:15:42 52° ESE 18:20:03 20° NNE
Cosmos 2263 4.3 18:12:50 10° SSW 18:18:36 80° WNW 18:24:05 11° NNE
H-2A R/B 4.1 17:15:07 10° W 18:22:29 59° SSW 18:27:12 20° SE
Cosmos 2184 Rocket 4.2 18:17:34 10° SSE 18:23:33 45° E 18:27:26 21° NNE
Cosmos 2074 Rocket 4.1 18:20:48 10° SSE 18:26:43 49° E 18:30:44 21° NNE
NOSS 3-3 (A) 3.9 18:20:55 10° SSW 18:26:46 80° WNW 18:31:05 22° NNE
NOSS 3-3 (C) 3.9 18:21:02 10° SSW 18:26:53 81° WNW 18:31:08 22° NNE
DMSP B5D1-3 4.5 18:22:04 10° NNE 18:27:14 87° WNW 18:32:23 10° SSW
BREEZE-M DEB (TANK) 4.1 18:25:50 10° WNW 18:28:18 25° NNW 18:29:43 21° NNE
Cosmos 1933 3.9 18:24:58 10° SSW 18:28:54 56° W 18:32:54 10° N
Cosmos 972 Rocket 4.3 18:24:55 10° S 18:29:45 45° ESE 18:29:45 45° ESE
Cosmos 1656 Rocket 3.6 18:25:50 10° S 18:31:10 59° ESE 18:32:19 48° ENE
Cosmos 1302 Rocket 4.0 18:28:04 10° NNW 18:33:23 84° WSW 18:38:38 10° SSE
Hubble Space Telescope 3.4 18:34:32 10° SW 18:36:39 14° SSW 18:38:39 10° S
Atlas Centaur 2 3.3 18:37:10 10° W 18:41:49 28° SSW 18:43:31 22° S
Cosmos 1943 Rocket 3.5 18:41:04 10° SW 18:46:09 36° WNW 18:51:14 10° N
Ariane Rocket 4.2 18:43:46 10° S 18:48:32 41° W 18:53:20 10° NNW
CZ-4 R/B 4.1 18:46:41 10° SW 18:49:31 19° W 18:52:24 10° NW
Cosmos 2369 Rocket 4.0 18:45:18 10° WSW 18:50:08 29° WNW 18:55:03 10° N
Timation 2 Rocket 4.1 19:03:00 10° NNW 19:09:00 67° WSW 19:10:57 42° S
ATLAS 2AS CENTAUR R/B 3.4 19:20:32 10° NNW 19:25:53 45° N 19:25:53 45° N
CZ-4C R/B 4.1 19:44:42 10° WSW 19:47:29 24° WNW 19:47:29 24° WNW
